Temperature
30 32 32 33 33 33 33 33 32 32 32 31 31 31 31 29 28 28 28 27 26 25 24 23 22 21 21 20 20 20 19 19 19 18 18 18 18 18 18 18 18 18 17 17
31 31 32 32 32 32 32 32 32 31 31 31 31 31 32 30 29 29 28 27 26 25 24 23 22 21 21 21 20 20 20 19 19 19 19 18 18 18 18 18 18 18 17 17
31 32 31 31 31 31 32 32 32 31 31 31 31 31 31 31 29 28 28 27 27 26 25 23 22 22 22 21 21 20 20 20 19 19 19 18 18 18 18 18 18 18 18 18
31 31 30 31 31 31 31 32 31 31 31 31 31 31 32 31 30 29 28 27 27 26 25 24 23 22 22 22 21 21 20 20 20 19 19 19 19 19 18 18 18 18 18 18
30 30 30 30 31 31 31 31 31 31 31 31 31 31 32 31 31 30 29 27 27 26 25 24 24 23 22 22 21 21 21 20 20 20 19 19 19 19 18 18 18 18 18 18
30 30 31 31 31 31 30 30 30 31 31 30 31 31 31 32 31 31 30 28 27 26 25 24 24 23 22 22 21 21 21 21 20 20 19 19 19 19 18 18 18 18 18 18
29 29 30 30 30 30 30 30 30 29 30 30 31 30 31 31 31 30 30 28 27 26 25 24 24 23 22 22 21 21 21 21 21 20 20 20 19 19 19 18 18 18 18 18
28 29 29 30 30 30 30 31 30 29 30 31 30 30 32 31 30 29 28 28 27 26 25 24 23 23 22 22 21 21 21 21 21 20 20 20 19 19 18 18 18 18 18 18
29 29 29 29 30 31 30 31 32 30 30 30 31 31 31 30 30 29 28 28 27 26 25 24 24 23 22 22 21 21 21 21 21 20 20 20 19 19 19 19 19 18 18 18
29 28 29 29 29 29 31 31 30 30 28 29 30 30 31 30 30 30 29 28 27 26 26 25 24 23 22 22 21 21 21 21 21 20 20 20 19 19 19 19 19 18 18 18
29 28 28 28 29 29 29 30 30 30 30 29 29 30 32 31 30 30 29 28 27 26 25 25 24 23 22 22 21 21 21 21 21 20 20 19 19 19 19 19 19 19 18 18
28 29 28 29 29 29 30 30 30 29 28 29 30 30 31 30 30 29 28 27 26 26 25 24 24 23 22 21 21 21 21 21 21 20 20 20 19 19 19 19 19 18 18 18
27 27 27 27 28 28 29 29 30 30 29 29 29 30 30 29 29 28 28 26 25 25 24 24 23 22 21 21 21 20 20 20 20 20 20 19 19 19 19 19 19 18 18 18
25 26 27 28 28 29 28 28 29 29 29 29 29 30 30 29 29 28 27 26 25 24 23 23 22 22 21 21 20 20 20 20 20 20 19 19 19 19 19 19 18 18 18 18
26 26 27 28 28 29 28 28 28 29 29 29 30 30 30 29 28 27 26 25 25 24 23 22 22 21 21 20 20 20 20 20 19 19 19 19 19 18 18 18 18 18 18 18
25 25 26 26 27 28 28 28 28 29 29 29 29 29 30 28 27 26 25 25 24 24 23 22 22 21 21 21 20 20 20 20 19 19 19 19 19 18 18 18 18 18 18 18
24 24 25 26 27 26 26 28 28 28 29 29 29 29 29 28 27 26 25 24 24 23 23 22 22 21 21 21 20 20 20 20 19 19 19 19 18 18 18 18 18 18 18 17
23 23 24 25 25 24 27 29 28 28 28 29 28 28 28 27 26 25 24 24 23 23 22 22 21 21 21 21 21 20 20 20 19 19 19 18 18 18 18 17 17 17 17 17
23 23 24 25 24 25 27 27 27 27 27 28 27 27 27 26 25 25 24 23 22 22 21 21 21 21 21 21 20 20 20 20 19 19 19 18 18 18 17 17 17 17 17 16
22 22 23 24 24 24 26 27 26 27 26 27 27 26 26 25 27 26 23 22 21 21 20 20 20 20 21 20 20 20 19 19 19 19 18 18 18 17 17 17 17 17 16 16
22 21 22 23 24 25 26 26 25 25 26 25 25 25 25 25 25 24 22 21 20 20 20 20 20 20 20 20 20 19 19 19 19 19 18 18 17 17 17 17 17 16 16 16
22 23 22 23 23 24 25 25 25 24 23 24 24 24 24 23 22 22 21 20 20 19 19 20 20 20 20 20 19 19 19 19 18 18 18 17 17 17 17 16 16 16 15 15
22 23 23 23 24 23 23 23 22 21 22 22 23 23 22 22 22 21 20 20 19 19 19 19 19 19 19 19 19 19 18 18 18 18 17 17 17 16 16 16 16 16 15 15
21 20 22 22 23 22 21 21 20 20 20 21 21 21 21 21 21 20 19 19 19 19 19 18 18 18 18 18 18 18 18 18 18 17 17 16 16 16 16 16 15 15 15 15
20 20 21 21 22 21 21 20 20 20 20 20 20 20 20 20 20 19 19 18 18 18 18 18 18 18 18 18 18 18 17 17 17 17 16 16 16 16 15 15 15 15 15 15
20 20 21 21 21 21 20 19 19 19 19 19 19 19 19 19 19 19 18 18 18 18 17 17 17 17 17 17 17 17 17 17 16 16 16 16 15 15 15 14 15 15 15 15
Wind_Speed
7 10 11 11 9 5 6 7 6 4 3 6 7 7 6 10 11 11 11 11 11 10 9 9 9 8 8 7 7 6 5 5 4 3 3 3 2 2 1 1 1 1 1 1
9 11 8 6 6 6 8 8 6 4 3 5 6 7 6 9 11 11 11 12 11 11 10 10 10 10 9 9 8 7 7 6 5 4 3 2 1 1 1 0 1 1 1 2
12 6 7 9 10 10 10 9 7 4 4 6 6 7 8 8 9 10 11 11 12 12 12 12 12 11 10 10 9 8 7 7 6 5 4 3 3 2 2 1 1 1 1 1
8 6 9 11 11 10 10 6 6 6 7 5 6 6 7 8 9 10 10 11 11 12 12 12 12 12 11 11 10 9 8 7 7 6 5 5 3 2 2 1 1 0 1 1
8 9 11 11 10 9 6 5 7 7 8 8 7 8 5 6 7 9 10 10 10 11 12 12 12 12 11 10 10 9 8 8 7 7 6 5 4 3 2 2 1 1 1 1
6 6 7 7 6 7 7 7 6 8 9 11 8 9 6 5 5 5 7 9 9 10 11 11 11 10 10 10 10 9 9 9 8 8 7 6 5 4 2 2 2 2 1 1
9 9 7 7 9 9 10 10 7 8 9 9 5 8 5 1 2 3 4 6 8 10 10 11 11 11 11 11 10 10 10 9 9 8 7 7 6 5 4 4 2 2 2 1
12 12 11 9 10 10 13 14 10 8 9 7 7 8 3 2 2 3 3 5 7 9 10 11 11 11 11 11 11 11 11 10 9 8 8 7 6 5 4 4 3 3 2 2
10 10 9 8 7 9 12 13 10 9 9 9 7 6 5 4 4 4 4 5 6 8 10 10 11 11 11 11 11 11 11 10 9 8 7 7 6 5 4 4 4 3 2 2
6 8 9 8 7 6 8 10 8 10 9 10 9 9 6 7 6 5 5 5 6 6 8 9 9 10 10 9 9 10 10 10 9 8 7 6 6 6 5 4 3 2 2 2
8 9 9 10 11 12 10 12 10 9 10 10 9 6 2 4 5 5 5 5 6 6 7 8 8 9 9 9 9 9 10 9 9 8 7 7 6 6 5 4 3 3 3 3
9 9 10 11 7 6 11 12 13 11 10 10 11 5 4 2 3 4 5 4 5 5 5 6 7 9 9 9 9 8 8 9 8 8 7 7 6 5 4 4 3 3 3 2
6 8 10 10 9 9 12 12 13 12 10 11 13 7 5 3 3 4 4 4 4 4 4 5 6 7 8 9 8 8 8 8 8 8 8 7 6 5 4 4 3 3 2 2
5 9 12 13 9 11 12 13 14 14 12 13 14 11 5 4 4 4 4 4 4 4 4 5 6 6 7 8 8 8 8 8 7 7 7 7 6 5 5 4 3 2 2 2
6 10 12 11 8 10 12 14 15 16 15 14 12 12 8 5 5 4 5 5 5 5 5 5 6 6 7 8 8 8 7 7 7 7 6 6 6 5 4 4 3 2 2 2
5 8 11 13 11 12 13 15 16 16 15 15 14 13 7 4 5 5 6 7 7 6 6 6 6 6 7 8 9 8 8 7 7 7 7 6 5 5 4 4 4 3 2 1
6 7 10 13 12 12 17 17 16 15 15 15 15 11 6 6 6 6 6 7 7 6 6 6 6 6 6 7 8 8 8 8 8 7 7 6 6 5 5 4 4 4 3 2
8 9 8 11 12 17 11 9 11 12 13 13 12 10 8 7 6 5 5 6 6 6 6 6 6 6 6 6 7 8 8 8 8 7 6 6 6 6 5 5 4 4 3 3
10 10 9 11 15 15 9 9 11 12 11 10 9 8 7 5 6 5 4 4 4 5 5 5 6 6 6 7 7 8 8 8 8 8 7 7 6 6 6 5 5 4 3 3
9 11 11 12 14 16 11 8 7 9 12 8 8 8 7 7 9 5 4 3 3 4 4 5 5 6 6 6 7 8 8 8 7 7 7 6 6 6 5 5 5 4 4 4
11 11 15 15 14 12 5 6 8 12 7 4 6 7 7 7 5 2 4 4 4 5 5 5 5 5 5 6 7 8 7 6 6 6 6 6 6 6 6 5 4 4 4 4
12 11 13 13 15 12 4 7 8 4 1 2 5 6 6 6 4 4 5 5 5 5 5 5 5 5 5 6 7 7 7 5 5 6 6 5 5 5 5 5 5 5 5 5
10 10 9 9 8 1 2 4 2 2 2 2 3 5 6 6 6 5 5 6 6 6 5 5 5 6 6 6 7 7 7 6 6 6 6 5 5 5 5 5 6 6 6 5
7 5 7 7 6 4 4 3 3 3 3 3 3 4 5 6 6 5 5 5 5 5 5 5 5 6 6 6 6 6 6 6 7 7 6 6 6 5 5 4 4 4 4 4
5 5 7 8 6 5 5 4 2 2 1 1 2 3 4 5 5 5 5 5 5 5 5 5 5 6 6 6 6 6 7 7 7 7 6 6 5 5 4 4 2 2 2 1
8 7 8 7 4 5 4 3 2 2 2 1 2 2 3 4 5 5 5 5 5 5 5 5 5 5 6 6 6 6 7 7 7 7 6 5 5 5 4 4 3 4 3 4
Wind_Direction
193 209 209 205 218 232 208 213 201 178 167 216 229 231 198 188 199 201 197 195 196 197 186 184 187 188 186 186 188 191 196 191 200 199 203 195 185 188 170 171 151 208 217 227
198 213 206 189 196 207 204 210 200 175 174 232 244 243 220 200 208 207 204 203 202 197 190 187 189 191 194 193 193 194 198 196 199 192 194 201 189 190 166 159 144 247 227 243
214 186 173 184 190 203 212 219 213 204 188 214 250 229 209 199 207 211 213 212 209 203 199 193 192 195 197 196 196 198 199 196 199 192 189 177 181 202 188 190 186 232 264 264
210 177 184 194 198 208 211 212 212 209 224 224 240 251 199 198 202 206 210 210 211 207 203 198 195 196 198 198 194 194 193 194 194 194 197 196 198 200 195 216 183 213 256 273
190 183 190 201 201 210 202 175 203 219 237 250 230 260 222 190 213 210 207 208 209 205 201 199 197 195 197 194 190 187 186 189 192 197 198 203 209 206 197 198 170 243 225 260
186 186 207 203 186 188 155 164 188 223 240 243 239 252 247 202 222 216 200 203 205 201 199 196 192 188 190 190 188 186 183 188 190 195 199 207 210 212 214 220 217 226 228 242
189 191 186 185 178 181 196 201 213 220 225 235 213 244 254 199 221 226 206 198 197 194 191 190 188 187 189 189 189 188 187 189 190 195 201 205 210 211 220 232 221 245 258 248
198 195 188 195 209 202 209 221 231 239 238 224 200 238 229 157 200 205 204 193 186 187 186 188 189 189 190 189 189 190 189 191 191 195 200 205 208 213 218 230 244 233 256 268
207 198 174 192 210 218 208 224 238 246 252 252 228 226 221 179 190 193 188 181 181 184 185 188 189 188 189 189 191 192 189 190 190 192 196 201 205 211 219 222 233 237 248 258
220 202 182 181 189 214 235 217 220 234 242 244 237 232 229 190 195 187 187 182 174 179 185 187 188 188 189 188 187 186 183 183 186 189 195 196 200 206 214 219 225 238 249 269
222 213 188 191 208 204 200 211 224 231 244 248 249 237 184 195 195 196 192 184 179 184 183 182 185 187 186 183 179 178 179 179 181 187 191 197 196 197 199 208 220 229 239 243
217 224 212 206 205 236 221 219 217 225 229 243 259 248 121 171 197 197 188 179 176 181 181 179 180 181 181 180 176 174 176 178 179 180 185 188 187 190 197 209 225 230 235 243
202 219 213 204 202 205 215 217 222 231 234 240 246 242 135 165 205 197 186 174 172 173 175 175 174 175 179 178 177 176 176 178 179 180 182 181 185 189 197 205 211 215 220 230
227 226 232 229 218 199 208 212 218 225 234 239 243 252 225 217 220 197 189 186 180 176 177 171 168 171 176 177 178 179 176 176 175 178 182 182 186 189 193 194 190 196 206 211
224 229 235 248 245 222 220 217 217 227 241 250 250 253 250 237 235 217 201 197 191 188 185 179 176 171 174 177 177 178 176 173 174 175 180 182 180 180 182 180 177 176 186 193
230 235 232 238 234 232 229 223 224 231 240 247 254 252 253 249 234 222 210 203 200 197 194 187 181 175 176 179 179 176 175 175 174 175 177 174 175 173 173 171 161 155 158 170
214 225 229 233 224 232 234 228 227 232 235 241 246 251 250 247 237 228 214 208 207 204 198 192 186 183 181 181 178 178 176 172 171 174 177 175 176 176 179 178 166 163 168 169
226 230 232 235 219 231 236 222 226 232 236 237 244 247 245 245 234 229 217 204 202 199 194 188 183 178 178 176 173 175 172 169 170 175 178 179 179 177 172 172 169 174 176 172
220 220 230 231 227 233 224 213 217 223 233 232 237 242 238 230 221 218 201 188 189 187 186 182 177 170 169 170 167 167 169 169 173 181 183 181 179 176 171 173 171 171 170 162
201 215 227 229 234 234 226 194 207 226 232 222 226 230 232 225 231 217 172 170 168 166 167 168 165 161 165 166 161 164 168 166 172 179 180 176 175 178 178 174 171 169 171 167
195 208 222 228 235 239 223 185 192 222 232 209 221 225 225 223 248 211 167 165 163 157 153 154 155 154 156 159 159 164 164 168 169 167 163 165 174 177 176 169 164 166 167 154
211 214 218 226 232 231 186 189 212 247 332 226 221 219 215 213 214 176 148 149 152 152 145 147 149 148 147 153 157 158 157 157 152 151 149 153 165 173 167 165 162 165 165 158
227 231 227 227 236 305 206 221 254 296 266 254 233 220 209 205 192 170 154 150 151 148 142 145 144 143 142 152 159 158 156 152 149 148 147 150 156 162 167 169 170 173 178 178
225 244 235 231 232 241 243 245 249 261 260 260 236 221 204 196 187 170 157 154 155 149 142 146 145 147 148 156 161 158 152 154 153 154 156 161 163 162 162 175 180 183 185 185
248 226 227 230 232 231 228 240 250 247 239 224 215 206 202 193 186 173 169 166 162 155 148 150 149 149 152 152 154 153 153 156 159 160 161 167 168 162 164 162 155 184 168 187
236 238 238 241 236 244 251 264 264 257 255 234 215 204 198 193 186 179 175 170 167 161 155 156 150 151 156 151 153 156 160 166 171 173 174 174 177 169 173 166 153 66 65 84
Height
1508 1506 1504 1502 1501 1502 1504 1508 1512 1513 1513 1516 1517 1517 1518 1525 1528 1530 1533 1536 1539 1542 1545 1547 1548 1550 1551 1551 1552 1553 1553 1554 1554 1555 1556 1556 1557 1557 1557 1558 1557 1557 1557 1557
1507 1505 1502 1503 1505 1506 1507 1511 1513 1514 1515 1516 1516 1515 1514 1520 1524 1526 1530 1533 1536 1539 1542 1544 1546 1548 1549 1550 1551 1552 1552 1553 1553 1554 1554 1555 1556 1557 1557 1557 1557 1557 1557 1557
1502 1501 1505 1506 1508 1509 1509 1510 1512 1515 1516 1515 1516 1516 1514 1516 1521 1524 1527 1530 1533 1536 1539 1541 1543 1545 1547 1548 1549 1550 1551 1552 1552 1553 1554 1555 1555 1556 1557 1557 1557 1556 1556 1556
1501 1503 1506 1506 1507 1507 1512 1508 1510 1514 1518 1516 1517 1522 1511 1511 1516 1520 1523 1526 1529 1532 1535 1538 1540 1542 1544 1546 1547 1548 1549 1550 1551 1552 1553 1554 1555 1556 1556 1556 1556 1556 1556 1556
1502 1503 1505 1506 1505 1506 1507 1509 1511 1513 1515 1517 1515 1520 1510 1508 1512 1514 1518 1522 1525 1528 1531 1534 1537 1539 1542 1544 1545 1546 1547 1548 1550 1551 1552 1553 1554 1554 1555 1555 1555 1555 1555 1555
1499 1503 1503 1503 1505 1507 1510 1512 1514 1513 1513 1526 1517 1521 1515 1504 1508 1509 1514 1519 1522 1525 1528 1531 1534 1537 1539 1541 1543 1544 1545 1546 1548 1549 1550 1551 1552 1553 1554 1554 1554 1554 1554 1554
1504 1502 1503 1504 1506 1509 1509 1514 1525 1528 1526 1523 1513 1518 1511 1503 1505 1508 1512 1515 1519 1522 1525 1528 1531 1533 1535 1538 1540 1541 1543 1544 1546 1547 1549 1550 1550 1551 1552 1553 1553 1553 1554 1553
1505 1506 1501 1501 1502 1505 1505 1506 1521 1532 1528 1517 1516 1515 1504 1503 1507 1510 1512 1514 1516 1519 1522 1525 1528 1530 1532 1534 1536 1538 1540 1541 1543 1545 1546 1548 1549 1550 1551 1551 1551 1551 1552 1552
1497 1501 1498 1500 1501 1500 1505 1503 1499 1510 1514 1520 1510 1507 1501 1503 1505 1508 1510 1512 1514 1517 1520 1522 1525 1528 1530 1532 1534 1536 1537 1539 1541 1543 1544 1546 1547 1548 1549 1549 1549 1549 1549 1550
1492 1501 1498 1500 1502 1503 1499 1498 1505 1511 1525 1527 1515 1510 1505 1503 1503 1505 1508 1510 1513 1516 1518 1521 1523 1526 1528 1530 1532 1533 1535 1537 1539 1541 1543 1544 1545 1546 1547 1547 1548 1548 1548 1548
1492 1499 1501 1500 1501 1499 1503 1503 1502 1504 1508 1519 1522 1510 1492 1497 1501 1503 1506 1509 1511 1514 1516 1519 1521 1523 1526 1528 1530 1531 1533 1535 1537 1539 1541 1542 1543 1544 1545 1546 1546 1546 1546 1546
1493 1493 1498 1497 1495 1494 1495 1496 1501 1511 1514 1511 1511 1506 1492 1496 1500 1503 1505 1508 1510 1513 1515 1517 1519 1522 1524 1526 1528 1529 1531 1533 1535 1537 1539 1540 1541 1542 1543 1544 1544 1544 1544 1544
1495 1497 1505 1505 1503 1499 1496 1495 1496 1498 1504 1508 1511 1504 1494 1497 1500 1502 1505 1507 1510 1512 1513 1515 1518 1519 1521 1524 1526 1528 1529 1531 1533 1535 1537 1538 1539 1540 1541 1541 1542 1542 1542 1542
1497 1495 1497 1499 1492 1490 1496 1496 1495 1497 1503 1503 1501 1496 1493 1495 1499 1502 1504 1506 1508 1510 1512 1514 1516 1518 1519 1521 1524 1526 1527 1529 1531 1533 1535 1536 1537 1538 1539 1539 1540 1541 1541 1541
1495 1495 1492 1488 1485 1486 1490 1492 1494 1495 1494 1497 1494 1493 1491 1494 1498 1501 1504 1506 1507 1509 1511 1512 1514 1516 1518 1519 1521 1524 1526 1527 1529 1531 1532 1533 1535 1536 1537 1538 1538 1539 1539 1540
1495 1495 1494 1493 1488 1488 1489 1488 1489 1491 1491 1491 1491 1491 1489 1494 1498 1500 1502 1504 1506 1507 1509 1511 1513 1514 1516 1517 1519 1521 1523 1525 1526 1528 1529 1531 1532 1534 1535 1535 1536 1537 1538 1538
1494 1497 1498 1495 1490 1492 1494 1485 1486 1487 1486 1488 1490 1489 1489 1493 1496 1498 1500 1502 1503 1505 1507 1509 1511 1512 1514 1515 1517 1519 1521 1523 1525 1526 1527 1529 1530 1531 1533 1534 1535 1535 1535 1536
1496 1497 1495 1492 1495 1506 1484 1477 1479 1483 1483 1483 1485 1486 1489 1493 1495 1497 1498 1500 1502 1504 1505 1507 1508 1510 1511 1513 1515 1517 1519 1521 1522 1523 1525 1526 1528 1529 1530 1532 1532 1533 1534 1534
1493 1495 1493 1492 1494 1489 1481 1479 1480 1483 1484 1483 1484 1486 1489 1492 1493 1495 1496 1498 1500 1502 1503 1505 1506 1508 1509 1511 1513 1515 1517 1518 1520 1521 1522 1524 1525 1527 1528 1529 1530 1532 1532 1533
1492 1493 1492 1491 1494 1492 1478 1476 1479 1482 1485 1482 1484 1486 1488 1490 1488 1490 1495 1497 1498 1500 1501 1503 1504 1506 1507 1508 1510 1512 1514 1516 1517 1518 1520 1521 1523 1525 1526 1527 1528 1530 1530 1531
1489 1491 1489 1488 1489 1478 1473 1475 1479 1487 1482 1481 1483 1485 1487 1488 1489 1491 1493 1495 1496 1498 1499 1500 1502 1503 1504 1506 1508 1510 1512 1514 1515 1517 1518 1519 1521 1523 1525 1526 1527 1528 1529 1530
1480 1482 1484 1483 1486 1481 1474 1475 1477 1479 1480 1481 1482 1483 1485 1487 1489 1490 1491 1492 1494 1496 1497 1498 1500 1501 1502 1504 1506 1508 1510 1512 1514 1515 1516 1518 1520 1522 1523 1524 1525 1526 1527 1528
1475 1475 1473 1476 1477 1476 1476 1477 1479 1480 1480 1481 1481 1483 1484 1486 1487 1489 1490 1491 1493 1494 1495 1497 1498 1499 1501 1503 1505 1507 1508 1510 1512 1514 1515 1517 1518 1520 1521 1522 1523 1524 1525 1527
1475 1477 1474 1475 1473 1476 1477 1478 1479 1479 1480 1480 1481 1482 1483 1484 1486 1487 1489 1490 1491 1492 1494 1495 1496 1498 1500 1502 1503 1505 1507 1508 1510 1512 1513 1515 1517 1518 1519 1521 1522 1523 1523 1524
1474 1476 1473 1474 1474 1476 1476 1477 1478 1478 1479 1479 1479 1480 1482 1483 1484 1486 1487 1488 1490 1491 1493 1494 1495 1496 1498 1500 1502 1503 1505 1506 1508 1510 1511 1513 1515 1516 1517 1518 1519 1520 1521 1522
1475 1474 1473 1471 1473 1474 1475 1476 1477 1477 1477 1478 1478 1479 1481 1482 1483 1484 1486 1487 1489 1490 1491 1493 1494 1495 1497 1498 1500 1501 1503 1505 1506 1508 1510 1511 1514 1514 1516 1517 1517 1518 1519 1520